Observations for Trim Market St
| Time | AQI | Temp °C | Hum % | Pres Pa | CO μg/m³ | H₂S μg/m³ | NO μg/m³ | NO₂ μg/m³ | O₃ μg/m³ | SO₂ μg/m³ | PM1 μg/m³ | PM2.5 μg/m³ | PM10 μg/m³ |
|---|---|---|---|---|---|---|---|---|---|---|---|---|---|
| Sunday 12 July 2026 | |||||||||||||
| 18:30 | 2 | 26.9 | 46 | 59,000 | 0 | 4.39 | 0 | 9.22 | 34.39 | 0 | 1.43 | 4.16 | 4.46 |
| 18:29 | 2 | 26.9 | 46 | 59,166 | 0 | 4.9 | 0 | 8.94 | 33.85 | 0 | 0.71 | 3.65 | 4.46 |
| 18:28 | 2 | 26.9 | 46 | 59,334 | 0 | 5.46 | 0 | 9.74 | 35.35 | 0 | 1.43 | 4.17 | 4.46 |
| 18:27 | 2 | 27 | 46 | 59,561 | 0 | 4.87 | 0 | 9.03 | 35.37 | 0 | 1.43 | 3.66 | 3.69 |
| 18:26 | 2 | 27 | 46 | 59,648 | 0 | 4.71 | 0 | 9.44 | 32.92 | 0 | 1.43 | 3.66 | 3.68 |
| 18:25 | 2 | 27 | 46 | 59,678 | 0 | 4.36 | 0 | 9.04 | 34.09 | 0 | 0.71 | 3.66 | 3.68 |
| 18:24 | 2 | 27 | 46 | 59,654 | 0 | 4.81 | 0 | 8.73 | 31.16 | 0 | 1.43 | 4.18 | 4.45 |
| 18:23 | 2 | 27.1 | 46 | 59,634 | 0 | 6.76 | 0 | 9.7 | 33.6 | 0 | 2.14 | 4.18 | 4.45 |
| 18:21 | 2 | 27.1 | 46 | 59,636 | 0 | 8.65 | 0 | 11.55 | 35.22 | 0 | 1.43 | 3.67 | 4.04 |
| 18:20 | 2 | 27.1 | 46 | 60,058 | 0 | 8.68 | 0 | 10.66 | 36.54 | 0 | 1.43 | 4.2 | 5.21 |
| 18:19 | 2 | 27.2 | 46 | 60,260 | 0 | 8.54 | 0 | 11.84 | 36.91 | 0 | 0.71 | 3.16 | 3.48 |
| 18:18 | 2 | 27.2 | 45 | 60,540 | 0 | 6.41 | 0 | 9.67 | 35.26 | 0 | 0.71 | 3.69 | 4.43 |
| 18:17 | 2 | 27.3 | 45 | 60,821 | 0 | 6.8 | 0 | 9.94 | 34.79 | 0 | 0.71 | 4.21 | 5.21 |
| 18:15 | 2 | 27.3 | 45 | 60,882 | 0 | 6.67 | 0 | 9.75 | 34.53 | 0 | 0.71 | 4.22 | 5.21 |
| 18:14 | 2 | 27.3 | 45 | 60,951 | 0 | 9.44 | 0 | 11.06 | 37.74 | 0 | 0.71 | 3.18 | 3.5 |
| 18:13 | 2 | 27.3 | 45 | 61,018 | 0 | 7.76 | 0 | 10.47 | 34.27 | 0 | 0.71 | 3.71 | 6.75 |
| 18:10 | 2 | 27.4 | 45 | 61,427 | 0 | 12.88 | 0 | 13.17 | 39.72 | 0 | 0.71 | 3.19 | 3.51 |
| 18:09 | 2 | 27.4 | 45 | 61,638 | 0 | 10.05 | 0 | 11.59 | 36.2 | 0 | 1.43 | 3.72 | 4.42 |
| 18:05 | 2 | 27.5 | 44 | 62,174 | 0 | 9.57 | 0 | 10.91 | 39.57 | 0 | 2.14 | 4.27 | 5.19 |
| 17:58 | 2 | 27.7 | 44 | 62,995 | 0 | 11.24 | 0 | 10.85 | 40.83 | 0 | 1.43 | 4.3 | 4.39 |